CFE82DC LIRQ-EGLC

Flight info

Callsign CFE82DC
Flight time N/A
Altitude 39000
Route BIBNO T648 BEROK DCT CERVI/N0437F400 DCT IBODI/N0415F360 DCT GOTED DCT TRO DCT CLM/N0421F380 DCT KOPOR DCT VESAN DCT RATUK L613 SOVAT
Aircraft E190/M-SDE3GILORVW/S

Departure

Time 2026-04-26 17:45
Airport Florence Airport, Peretola (LIRQ)

Arrival

Time N/A
Airport London City Airport (EGLC)
Time Latitude Longitude Altitude Speed Heading
2026-04-26 17:09 43.80298 11.20031 125 ft 0 kts 159°
2026-04-26 17:36 43.80306 11.20027 125 ft 4 kts 159°
2026-04-26 17:36 43.80327 11.20016 124 ft 2 kts 159°
2026-04-26 17:36 43.80350 11.20004 123 ft 3 kts 159°
2026-04-26 17:36 43.80361 11.20010 124 ft 4 kts 75°
2026-04-26 17:37 43.80360 11.20009 124 ft 4 kts 59°
2026-04-26 17:37 43.80352 11.19981 124 ft 2 kts 88°
2026-04-26 17:37 43.80357 11.19963 123 ft 2 kts 134°
2026-04-26 17:38 43.80378 11.19935 125 ft 1 kts 58°
2026-04-26 17:38 43.80379 11.19937 125 ft 3 kts 58°
2026-04-26 17:40 43.80384 11.19941 126 ft 1 kts 35°
2026-04-26 17:40 43.80399 11.19941 125 ft 5 kts
2026-04-26 17:41 43.80454 11.19958 130 ft 10 kts 14°
2026-04-26 17:41 43.80523 11.19981 132 ft 10 kts 13°
2026-04-26 17:41 43.80600 11.20005 127 ft 13 kts 12°
2026-04-26 17:41 43.80691 11.20039 128 ft 14 kts 24°
2026-04-26 17:42 43.80762 11.20134 132 ft 15 kts 48°
2026-04-26 17:42 43.80840 11.20253 127 ft 19 kts 49°
2026-04-26 17:42 43.80936 11.20403 128 ft 22 kts 49°
2026-04-26 17:42 43.81048 11.20574 122 ft 26 kts 48°
2026-04-26 17:43 43.81169 11.20761 126 ft 27 kts 48°
2026-04-26 17:43 43.81293 11.20954 132 ft 27 kts 48°
2026-04-26 17:43 43.81410 11.21134 132 ft 10 kts 48°
2026-04-26 17:43 43.81449 11.21197 131 ft 11 kts 49°
2026-04-26 17:44 43.81486 11.21311 133 ft 13 kts 59°
2026-04-26 17:44 43.81523 11.21313 135 ft 6 kts 257°
2026-04-26 17:44 43.81505 11.21281 132 ft 9 kts 228°
2026-04-26 17:44 43.81304 11.20971 132 ft 78 kts 228°
2026-04-26 17:45 43.80797 11.20185 132 ft 138 kts 229°
2026-04-26 17:45 43.80098 11.19068 510 ft 160 kts 229°
2026-04-26 17:45 43.79338 11.17865 1183 ft 176 kts 231°
2026-04-26 17:45 43.78894 11.16248 1844 ft 190 kts 271°
2026-04-26 17:46 43.79319 11.14484 2610 ft 200 kts 294°
2026-04-26 17:46 43.79790 11.12681 3434 ft 202 kts 284°
2026-04-26 17:46 43.80106 11.10725 4169 ft 212 kts 281°
2026-04-26 17:46 43.80466 11.08703 4999 ft 225 kts 284°
2026-04-26 17:47 43.80888 11.06582 5876 ft 231 kts 285°
2026-04-26 17:47 43.81047 11.05863 6206 ft 232 kts 288°
2026-04-26 17:47 43.82609 11.02921 7735 ft 236 kts 334°
2026-04-26 17:47 43.84159 11.02169 8637 ft 237 kts 344°
2026-04-26 17:48 43.85771 11.01587 9505 ft 240 kts 346°
2026-04-26 17:48 43.87410 11.01020 10290 ft 247 kts 346°
2026-04-26 17:48 43.88534 11.00653 10748 ft 252 kts 347°
2026-04-26 17:48 43.90820 10.99966 11860 ft 254 kts 349°
2026-04-26 17:49 43.92585 10.99601 12563 ft 266 kts 358°
2026-04-26 17:49 43.94519 10.99703 12944 ft 289 kts
2026-04-26 17:49 43.95883 10.99843 13244 ft 304 kts
2026-04-26 17:49 43.98842 11.00057 13931 ft 330 kts
2026-04-26 17:50 44.01116 10.99734 14699 ft 336 kts 342°
2026-04-26 17:50 44.02543 10.98770 15377 ft 337 kts 326°
2026-04-26 17:50 44.04192 10.96537 16449 ft 337 kts 306°
2026-04-26 17:50 44.05433 10.93729 17473 ft 338 kts 300°
2026-04-26 17:51 44.06584 10.90896 18316 ft 342 kts 300°
2026-04-26 17:51 44.07732 10.87968 19045 ft 348 kts 298°
2026-04-26 17:51 44.08860 10.84965 19802 ft 352 kts 297°
2026-04-26 17:51 44.09963 10.81906 20573 ft 356 kts 296°
2026-04-26 17:52 44.11044 10.78795 21310 ft 359 kts 296°
2026-04-26 17:52 44.12207 10.75702 21991 ft 362 kts 298°
2026-04-26 17:52 44.13424 10.72607 22671 ft 365 kts 298°
2026-04-26 17:52 44.14643 10.69492 23325 ft 368 kts 298°
2026-04-26 17:53 44.15869 10.66339 23926 ft 372 kts 298°
2026-04-26 17:53 44.16827 10.62990 24470 ft 375 kts 282°
2026-04-26 17:53 44.17005 10.59352 25063 ft 377 kts 270°
2026-04-26 17:54 44.16902 10.52004 26206 ft 382 kts 269°
2026-04-26 17:54 44.16832 10.48332 26753 ft 385 kts 269°
2026-04-26 17:54 44.16805 10.47076 26933 ft 386 kts 269°